Regional Weather Roundup
Issued by NWS

Home | Current Version | Previous Version | Text Only | Print | Product List | Glossary On
Versions: 1 2 3 4 5 6 7 8 9 10 11 12 13 14 15 16 17 18 19 20 21 22 23 24 25 26 27 28 29 30 31 32 33 34 35 36 37 38 39 40 41 42 43 44 45 46 47 48 49 50
000
ASUS44 KFWD 271901
RWRTX
NORTH TEXAS HOURLY WEATHER ROUNDUP
NATIONAL WEATHER SERVICE FORT WORTH TX
200 PM CDT TUE JUN 27 2017

NOTE: "FAIR" INDICATES FEW OR NO CLOUDS BELOW 12,000 FEET WITH NO
SIGNIFICANT WEATHER AND/OR OBSTRUCTIONS TO VISIBILITY.

TXZ118-119-272000-
DALLAS/FORT WORTH METROPLEX

CITY           SKY/WX    TMP DP  RH WIND       PRES   REMARKS
DFW AIRPORT    PTSUNNY   90  70  51 S8        29.97F HX  95
DALLAS LOVE    PTSUNNY   89  69  51 S12       29.98F HX  93
FTW MEACHAM    MOSUNNY   90  72  55 S8        29.98F HX  97
DAL-EXECUTIVE  MOSUNNY   89  70  53 S7        29.98F HX  94
FTW-ALLIANCE   MOSUNNY   90  71  53 S7        29.98F HX  96
FTW-NAS-JRB    MOSUNNY   89  72  56 S10       29.99F HX  96
FTW-SPINKS     PTSUNNY   91  70  49 E8        30.00F HX  97
ARLINGTON      MOSUNNY   88  71  57 SE12      29.98F HX  94
GRAND PRAIRIE  MOSUNNY   88  70  55 SE7       30.02  HX  92
ADDISON        PTSUNNY   88  68  51 S13G18    29.99F HX  91
MESQUITE       PTSUNNY   90  70  51 SE7       29.99F HX  95
LANCASTER      PTSUNNY   87  71  58 S7        30.00F HX  93
$$

TXZ091>094-102>105-117-120-121-131>134-272000-
NORTH CENTRAL TEXAS

CITY           SKY/WX    TMP DP  RH WIND       PRES   REMARKS
SHRMAN/DENISON PTSUNNY   87  70  55 E9        30.01F HX  92
GAINESVILLE    SUNNY     88  68  52 CALM      30.01F HX  91
BOWIE          MOSUNNY   89  70  52 S6        30.00F HX  94
BRIDGEPORT     MOSUNNY   88  68  51 SE3       30.02F HX  91
DECATUR        PTSUNNY   85  68  56 SE5       30.01F
DENTON         MOSUNNY   89  71  55 SE7       29.98F HX  95
MCKINNEY       MOSUNNY   87  72  60 E7        29.99F HX  93
BONHAM         PTSUNNY   86  70  58 E8        30.00F HX  90
ROCKWALL       PTSUNNY   87  71  59 S7        30.00F HX  93
TERRELL        CLOUDY    84  69  60 SE14      30.01F THUNDER
WAXAHACHIE     MOSUNNY   88  71  56 SE6       30.00F HX  94
CLEBURNE       MOSUNNY   88  73  62 SE8G15    30.01F HX  96
GRANBURY       MOSUNNY   89  68  49 E6        30.00F HX  93
$$

TXZ083>090-098>101-113>116-127>130-139>142-154-155-272000-
WESTERN NORTH TEXAS

CITY           SKY/WX    TMP DP  RH WIND       PRES   REMARKS
WICHITA FALLS  PTSUNNY   88  68  51 S10       29.99F HX  91
WF-KICKAPOO    SUNNY     89  69  51 SE6G20    30.01F HX  93
VERNON         MOSUNNY   90  60  36 SE10      29.99F HX  90
ABILENE        MOSUNNY   87  64  46 S7        30.03F
ABILENE-DYESS  MOSUNNY   88  64  44 SE7       30.01F
GRAHAM         MOSUNNY   88  67  49 SE6       29.99F HX  91
CISCO          PTSUNNY   86  68  54 S5        30.04F
EASTLAND       MOSUNNY   86  69  57 S9        30.02F
RANGER         PTSUNNY   85  68  55 S8        30.03F
MINERAL WELLS  PTSUNNY   88  69  53 S8        29.99F HX  92
STEPHENVILLE   MOSUNNY   88  68  51 S6        30.04  HX  91
COMANCHE       MOSUNNY   87  70  55 E7        30.02F HX  92
BROWNWOOD      MOSUNNY   86  68  54 SE6       30.03F
COLEMAN        MOSUNNY   88  64  44 SW7       30.04F
$$

TXZ143>147-156>162-174-175-272000-
CENTRAL TEXAS

CITY           SKY/WX    TMP DP  RH WIND       PRES   REMARKS
WACO           MOSUNNY   89  72  56 SE5       29.99F HX  96
WACO-TSTC      MOSUNNY   86  70  58 SE6       30.00  HX  90
WACO-MCGREGOR  MOSUNNY   89  71  55 E9        29.99F HX  95
HILLSBORO      PTSUNNY   88  72  58 SE3       30.00F HX  94
MEXIA          MOSUNNY   90  70  51 E7        29.99F HX  95
HEARNE         PTSUNNY   86  73  66 E6        29.99F HX  93
CAMERON        PTSUNNY   89  71  54 SE6       29.98F HX  95
TEMPLE         PTSUNNY   89  70  53 E10       30.00F HX  94
KILLEEN        PTSUNNY   86  68  54 SE6       30.00
KILLEEN-SKYLRK   N/A     87  71  58 VRB5      30.00F HX  93
FORT HOOD      MOSUNNY   86  70  58 SE7       29.98F HX  90
HAMILTON       PTSUNNY   86  69  55 S8        30.04F HX  90
LAMPASAS       MOSUNNY   85  71  63 E5        30.01F
$$

TXZ095>097-106>112-122>126-135>138-148>153-164>167-272000-
EAST TEXAS

CITY           SKY/WX    TMP DP  RH WIND       PRES   REMARKS
PARIS            N/A     87  70  56 E8        30.02F HX  92
SULPHUR SPRNGS CLOUDY    85  69  59 E8        30.03F
MOUNT PLEASANT MOSUNNY   88  67  48 E7        30.03F HX  91
GILMER         CLOUDY    85  70  60 NE6       30.01F
MINEOLA        PTSUNNY   86  72  62 SE5       30.01S HX  92
TYLER          PTSUNNY   86  69  56 S6        30.00F HX  90
LONGVIEW       PTSUNNY   86  72  62 E6        30.00F HX  92
MARSHALL       SUNNY     85  69  58 E6        30.03F
PALESTINE      MOSUNNY   88  71  58 E8        30.01F HX  93
JACKSONVILLE   PTSUNNY   87  70  58 NE3       30.03F HX  91
HENDERSON      PTSUNNY   88  71  57 E5        30.02F HX  93
CENTER         MOCLDY    89  72  56 E7        30.02F HX  96
NACOGDOCHES    MOSUNNY   88  73  62 MISG      29.98F HX  96
LUFKIN         CLOUDY    86  74  67 VRB5      29.99F HX  94
$$

SUPPLEMENTAL OBSERVATIONS (NWS FORT WORTH AREA)

CITY           SKY/WX    TMP DP  RH WIND       PRES   REMARKS
$$

SUPPLEMENTAL OBSERVATIONS (NWS NORMAN AREA)

CITY           SKY/WX    TMP DP  RH WIND       PRES   REMARKS
GOODLETT         N/A     91  58  32 S13       29.98F HX  90
ODELL            N/A     89  69  50 S8        30.00F HX  93
CROWELL          N/A     91  64  40 S8        30.00F HX  92
KNOX CITY        N/A     91  60  35 S9G16     30.01F HX  90
SEYMOUR          N/A     89  66  46 SE13      30.00F HX  91
$$

SUPPLEMENTAL OBSERVATIONS (NWS SAN ANGELO AREA)

CITY           SKY/WX    TMP DP  RH WIND       PRES   REMARKS
WEINERT          N/A     90  65  43 SE12      30.02S HX  91
HASKELL          N/A     86  62  43 SE8G15    30.02S
THROCKMORTON     N/A     86  69  56 SE9       30.03S HX  91
STAMFORD         N/A     89  64  43 SE13      30.02F HX  90
CLYDE            N/A     87  64  46 S6        30.06F
$$

SUPPLEMENTAL OBSERVATIONS (NWS SHREVEPORT AREA)

CITY           SKY/WX    TMP DP  RH WIND       PRES   REMARKS
$$

SUPPLEMENTAL OBSERVATIONS ARE A COLLECTION OF AUTOMATED INSTRUMENTS
THAT ARE MAINTAINED BY A VARIETY OF FEDERAL AND STATE AGENCIES.
CERTAIN ELEMENTS...SUCH AS HUMIDITY VALUES AND SUSTAINED WIND
SPEEDS...MAY BE APPROXIMATED.





USA.gov is the U.S. government's official web portal to all federal, state and local government web resources and services.